�������l�o���
Date,Time,MP-1(��Sv/h),MP-2(��Sv/h),MP-3(��Sv/h),MP-4(��Sv/h),MP-5(��Sv/h),MP-6(��Sv/h),MP-7(��Sv/h),����,����(m/s),���J
2023/04/25,00:00,0.158,0.139,0.224,0.220,0.216,0.124,0.078,�k,2.9,��
2023/04/25,00:10,0.158,0.140,0.223,0.220,0.216,0.123,0.079,�k�k��,3.6,��
2023/04/25,00:20,0.158,0.140,0.225,0.220,0.215,0.123,0.079,�k,3.6,��
2023/04/25,00:30,0.157,0.139,0.225,0.219,0.216,0.123,0.078,�k�k��,3.7,��
2023/04/25,00:40,0.157,0.140,0.224,0.219,0.215,0.124,0.079,�k�k��,3.4,��
2023/04/25,00:50,0.157,0.140,0.225,0.221,0.216,0.123,0.078,�k�k��,2.9,��
2023/04/25,01:00,0.158,0.140,0.224,0.220,0.216,0.124,0.078,�k�k��,2.7,��
2023/04/25,01:10,0.157,0.140,0.224,0.221,0.215,0.124,0.079,�k�k��,1.7,��
2023/04/25,01:20,0.156,0.141,0.224,0.220,0.216,0.123,0.080,�k�k��,1.9,��
2023/04/25,01:30,0.157,0.140,0.223,0.220,0.215,0.123,0.079,�k�k��,3.4,��
2023/04/25,01:40,0.159,0.140,0.225,0.221,0.216,0.123,0.079,�k�k��,2.3,��
2023/04/25,01:50,0.156,0.140,0.224,0.219,0.215,0.123,0.079,�k�k��,4.2,��
2023/04/25,02:00,0.157,0.141,0.225,0.221,0.216,0.124,0.080,�k�k��,3.4,��
2023/04/25,02:10,0.158,0.140,0.224,0.220,0.214,0.122,0.080,�k��,3.6,��
2023/04/25,02:20,0.157,0.140,0.224,0.220,0.215,0.123,0.079,�k�k��,3.4,��
2023/04/25,02:30,0.157,0.140,0.224,0.221,0.215,0.124,0.079,�k�k��,2.5,��
2023/04/25,02:40,0.156,0.141,0.224,0.220,0.216,0.124,0.079,�k�k��,1.7,��
2023/04/25,02:50,0.158,0.140,0.224,0.221,0.216,0.124,0.079,�k�k��,2.1,��
2023/04/25,03:00,0.156,0.140,0.224,0.220,0.214,0.123,0.079,�k�k��,2.0,��
2023/04/25,03:10,0.158,0.141,0.224,0.219,0.215,0.124,0.078,�k�k��,2.7,��
2023/04/25,03:20,0.157,0.141,0.224,0.219,0.216,0.125,0.078,�k�k��,2.5,��
2023/04/25,03:30,0.158,0.139,0.224,0.219,0.215,0.123,0.079,�k�k��,3.5,��
2023/04/25,03:40,0.157,0.140,0.225,0.220,0.216,0.123,0.078,�k��,2.8,��
2023/04/25,03:50,0.158,0.140,0.225,0.219,0.215,0.124,0.079,�k��,3.3,��
2023/04/25,04:00,0.158,0.140,0.225,0.220,0.214,0.125,0.078,�k��,3.8,��
2023/04/25,04:10,0.157,0.140,0.224,0.221,0.215,0.124,0.079,�k��,3.4,��
2023/04/25,04:20,0.157,0.139,0.223,0.220,0.216,0.124,0.078,�k�k��,2.3,��
2023/04/25,04:30,0.157,0.140,0.224,0.220,0.216,0.124,0.079,�k�k��,1.9,��
2023/04/25,04:40,0.158,0.141,0.225,0.220,0.215,0.124,0.079,�k�k��,3.5,��
2023/04/25,04:50,0.159,0.140,0.224,0.220,0.215,0.123,0.079,�k��,2.4,��
2023/04/25,05:00,0.157,0.139,0.224,0.220,0.216,0.123,0.079,�k��,3.9,��
2023/04/25,05:10,0.156,0.140,0.224,0.220,0.216,0.124,0.078,�k��,4.7,��
2023/04/25,05:20,0.157,0.139,0.224,0.219,0.215,0.124,0.079,�k��,5.0,��
2023/04/25,05:30,0.158,0.140,0.223,0.219,0.216,0.123,0.080,�k��,4.6,��
2023/04/25,05:40,0.157,0.140,0.224,0.220,0.215,0.123,0.079,�k��,4.8,��
2023/04/25,05:50,0.157,0.140,0.225,0.220,0.216,0.123,0.079,�k��,4.0,��
2023/04/25,06:00,0.157,0.140,0.225,0.220,0.215,0.125,0.079,�k��,3.6,��
2023/04/25,06:10,0.158,0.140,0.225,0.219,0.215,0.123,0.078,�k�k��,4.3,��
2023/04/25,06:20,0.158,0.139,0.225,0.219,0.215,0.123,0.079,�k�k��,4.2,��
2023/04/25,06:30,0.157,0.140,0.223,0.219,0.215,0.124,0.078,�k�k��,4.0,��
2023/04/25,06:40,0.157,0.140,0.222,0.220,0.217,0.124,0.079,�k�k��,4.8,��
2023/04/25,06:50,0.158,0.140,0.224,0.220,0.216,0.124,0.079,�k�k��,3.8,��
2023/04/25,07:00,0.157,0.140,0.223,0.220,0.214,0.124,0.078,�k�k��,3.1,��
2023/04/25,07:10,0.158,0.140,0.223,0.219,0.216,0.125,0.079,�k�k��,3.3,��
2023/04/25,07:20,0.156,0.139,0.222,0.219,0.215,0.123,0.077,�k�k��,3.6,��
2023/04/25,07:30,0.156,0.139,0.222,0.220,0.215,0.123,0.079,�k�k��,2.6,��
2023/04/25,07:40,0.157,0.139,0.223,0.219,0.216,0.124,0.078,�k��,3.4,��
2023/04/25,07:50,0.155,0.138,0.221,0.217,0.214,0.123,0.078,�k��,3.4,��
2023/04/25,08:00,0.157,0.139,0.222,0.217,0.215,0.123,0.078,�k��,2.8,�L
2023/04/25,08:10,0.156,0.139,0.222,0.219,0.216,0.123,0.079,�k��,3.9,��
2023/04/25,08:20,0.156,0.139,0.223,0.218,0.215,0.123,0.078,�k��,2.4,��
2023/04/25,08:30,0.157,0.140,0.222,0.218,0.215,0.123,0.078,�k��,3.4,��
2023/04/25,08:40,0.157,0.139,0.223,0.217,0.214,0.122,0.078,�k��,3.5,��
2023/04/25,08:50,0.157,0.139,0.222,0.218,0.216,0.123,0.079,���k��,3.0,��
2023/04/25,09:00,0.157,0.138,0.222,0.217,0.215,0.123,0.078,���k��,2.6,��
2023/04/25,09:10,0.158,0.140,0.224,0.218,0.216,0.123,0.079,�k��,2.8,��
2023/04/25,09:20,0.155,0.138,0.221,0.218,0.214,0.123,0.079,���k��,3.2,��
2023/04/25,09:30,0.154,0.139,0.222,0.219,0.215,0.122,0.079,���k��,2.5,��
2023/04/25,09:40,0.154,0.138,0.222,0.219,0.215,0.124,0.079,�k��,2.4,��
2023/04/25,09:50,-,0.139,0.224,0.218,0.216,0.123,0.079,�k��,2.4,��
2023/04/25,10:00,-,0.139,0.222,0.219,0.214,0.123,0.078,���k��,2.8,��
2023/04/25,10:10,-,0.140,0.223,0.217,0.215,0.123,0.079,��,2.4,��
2023/04/25,10:20,-,0.139,0.223,0.218,0.214,0.123,0.078,��,2.5,��
2023/04/25,10:30,-,0.139,0.222,0.219,0.215,0.124,0.079,���k��,2.8,��
2023/04/25,10:40,-,0.138,0.225,0.217,0.215,0.123,0.078,��,2.9,��
2023/04/25,10:50,-,0.140,0.223,0.220,0.216,0.123,0.078,��,2.3,��
2023/04/25,11:00,-,0.139,0.223,0.218,0.216,0.123,0.079,���쓌,2.9,��
2023/04/25,11:10,-,0.139,0.225,0.219,0.215,0.123,0.077,���쓌,2.3,��
2023/04/25,11:20,-,0.139,0.222,0.219,0.215,0.124,0.078,�쓌,2.6,��
2023/04/25,11:30,-,0.141,0.225,0.217,0.213,0.123,0.078,���쓌,2.8,��
2023/04/25,11:40,-,0.139,0.224,0.220,0.215,0.123,0.078,���쓌,3.7,��
2023/04/25,11:50,-,0.139,0.221,0.219,0.214,0.123,0.078,���쓌,4.0,��
2023/04/25,12:00,-,0.140,0.223,0.219,0.216,0.123,0.079,���쓌,3.3,��
2023/04/25,12:10,-,0.139,0.222,0.220,0.215,0.123,0.079,���쓌,4.0,��
2023/04/25,12:20,-,0.140,0.224,0.218,0.213,0.123,0.078,���쓌,4.4,��
2023/04/25,12:30,-,0.138,0.222,0.220,0.216,0.123,0.078,���쓌,4.7,��
2023/04/25,12:40,-,0.140,0.222,0.219,0.213,0.123,0.078,���쓌,4.0,��
2023/04/25,12:50,-,0.139,0.224,0.219,0.215,0.124,0.078,�쓌,3.4,��
2023/04/25,13:00,-,0.140,0.224,0.221,0.216,0.123,0.078,���쓌,5.1,��
2023/04/25,13:10,-,0.139,0.222,0.218,0.214,0.123,0.078,�쓌,4.8,��
2023/04/25,13:20,-,0.139,0.225,0.219,0.217,0.123,0.078,�쓌,5.1,��
2023/04/25,13:30,-,0.140,0.222,0.220,0.214,0.123,0.078,���쓌,5.5,��
2023/04/25,13:40,-,0.139,0.224,0.219,0.214,0.123,0.078,�쓌,4.7,��
2023/04/25,13:50,-,0.141,0.223,0.219,0.215,0.123,0.079,�쓌,5.2,��
2023/04/25,14:00,-,0.139,0.221,0.221,0.213,0.123,0.078,�쓌,4.3,��
2023/04/25,14:10,-,0.139,0.225,0.219,0.214,0.123,0.078,��쓌,4.9,��
2023/04/25,14:20,-,0.141,0.222,0.221,0.214,0.123,0.079,��쓌,4.8,��
2023/04/25,14:30,-,0.140,0.224,0.219,0.212,0.123,0.078,�쓌,5.3,��
2023/04/25,14:40,-,0.140,0.224,0.220,0.215,0.124,0.079,�쓌,3.6,��
2023/04/25,14:50,-,0.140,0.223,0.220,0.215,0.123,0.078,��쓌,5.1,��
2023/04/25,15:00,-,0.141,0.225,0.217,0.214,0.124,0.079,��쓌,5.4,��
2023/04/25,15:10,-,0.139,0.223,0.221,0.215,0.124,0.079,�쓌,6.6,��
2023/04/25,15:20,-,0.139,0.224,0.219,0.215,0.123,0.078,�쓌,6.3,��
2023/04/25,15:30,-,0.140,0.223,0.222,0.217,0.123,0.079,��쓌,7.7,��
2023/04/25,15:40,-,0.140,0.225,0.218,0.215,0.124,0.079,�쓌,7.6,��
2023/04/25,15:50,-,0.140,0.224,0.221,0.217,0.123,0.079,��쓌,6.8,��
2023/04/25,16:00,-,0.140,0.224,0.220,0.215,0.124,0.079,��쓌,6.3,��
2023/04/25,16:10,-,0.139,0.224,0.220,0.217,0.123,0.079,��쓌,6.8,��
2023/04/25,16:20,-,0.140,0.223,0.221,0.215,0.123,0.079,��쓌,6.5,��
2023/04/25,16:30,-,0.140,0.225,0.220,0.217,0.123,0.078,��쓌,5.6,��
2023/04/25,16:40,-,0.141,0.223,0.221,0.215,0.124,0.079,��쓌,5.0,��
2023/04/25,16:50,-,0.140,0.224,0.220,0.216,0.124,0.078,��쓌,5.3,��
2023/04/25,17:00,-,0.139,0.224,0.220,0.216,0.124,0.079,��,4.4,��
2023/04/25,17:10,-,0.138,0.224,0.219,0.216,0.124,0.080,��쓌,4.2,��
2023/04/25,17:20,-,0.140,0.225,0.221,0.215,0.124,0.078,��,3.7,��
2023/04/25,17:30,-,0.140,0.223,0.221,0.216,0.123,0.079,��쐼,3.9,��
2023/04/25,17:40,-,0.140,0.225,0.220,0.215,0.123,0.078,��,4.1,��
2023/04/25,17:50,-,0.139,0.224,0.221,0.215,0.124,0.079,��,2.9,��
2023/04/25,18:00,-,0.140,0.225,0.220,0.216,0.123,0.078,��,2.5,��
2023/04/25,18:10,0.154,0.140,0.225,0.221,0.216,0.124,0.079,��,3.3,��
2023/04/25,18:20,0.155,0.140,0.224,0.220,0.216,0.124,0.079,��,3.6,��
2023/04/25,18:30,0.155,0.140,0.224,0.220,0.215,0.123,0.079,��,4.2,��
2023/04/25,18:40,0.155,0.139,0.223,0.221,0.216,0.123,0.079,��,4.3,��
2023/04/25,18:50,0.154,0.140,0.224,0.220,0.215,0.124,0.078,��,5.2,��
2023/04/25,19:00,0.155,0.138,0.225,0.221,0.216,0.123,0.079,��,4.7,��
2023/04/25,19:10,0.154,0.140,0.223,0.219,0.215,0.124,0.078,��,4.0,��
2023/04/25,19:20,0.155,0.140,0.224,0.220,0.215,0.123,0.079,��,4.1,��
2023/04/25,19:30,0.155,0.139,0.224,0.221,0.217,0.124,0.078,��,4.4,�L
2023/04/25,19:40,0.155,0.140,0.224,0.220,0.215,0.123,0.079,��,4.3,�L
2023/04/25,19:50,0.153,0.139,0.224,0.222,0.216,0.123,0.079,��,4.4,�L
2023/04/25,20:00,0.155,0.140,0.224,0.219,0.214,0.124,0.078,��,3.9,�L
2023/04/25,20:10,0.155,0.141,0.224,0.220,0.216,0.123,0.079,��,4.2,�L
2023/04/25,20:20,0.155,0.140,0.224,0.219,0.215,0.123,0.079,��,4.6,�L
2023/04/25,20:30,0.154,0.140,0.224,0.220,0.216,0.123,0.079,��,4.9,�L
2023/04/25,20:40,-,-,-,-,-,-,-,-,-,-
2023/04/25,20:50,0.155,0.140,0.223,0.220,0.215,0.123,0.078,��,5.1,�L
2023/04/25,21:00,0.155,0.139,0.225,0.220,0.215,0.125,0.079,��,6.0,�L
2023/04/25,21:10,0.155,0.139,0.223,0.220,0.216,0.124,0.079,��,6.7,�L
2023/04/25,21:20,0.154,0.140,0.225,0.220,0.216,0.123,0.078,��,7.4,�L
2023/04/25,21:30,0.155,0.140,0.224,0.220,0.215,0.124,0.079,��,6.5,�L
2023/04/25,21:40,0.154,0.140,0.223,0.220,0.216,0.124,0.078,��,7.2,�L
2023/04/25,21:50,0.154,0.139,0.225,0.223,0.216,0.123,0.079,��,7.0,�L
2023/04/25,22:00,0.154,0.140,0.223,0.220,0.215,0.123,0.078,��,7.7,�L
2023/04/25,22:10,0.154,0.140,0.224,0.220,0.216,0.124,0.079,��,6.0,�L
2023/04/25,22:20,0.155,0.140,0.224,0.220,0.214,0.123,0.078,��,7.4,�L
2023/04/25,22:30,0.155,0.140,0.224,0.219,0.216,0.124,0.079,��,7.5,�L
2023/04/25,22:40,0.154,0.139,0.225,0.221,0.215,0.124,0.078,��,7.9,��
2023/04/25,22:50,0.154,0.139,0.224,0.220,0.216,0.125,0.079,��,6.9,��
2023/04/25,23:00,0.155,0.140,0.224,0.219,0.214,0.123,0.078,��쓌,9.5,��
2023/04/25,23:10,0.153,0.140,0.225,0.220,0.216,0.124,0.078,��,9.5,��
2023/04/25,23:20,0.155,0.140,0.225,0.219,0.215,0.123,0.078,��쓌,11.7,��
2023/04/25,23:30,0.154,0.140,0.223,0.221,0.215,0.124,0.078,��쓌,11.4,��
2023/04/25,23:40,0.155,0.140,0.223,0.220,0.215,0.123,0.078,��쓌,10.3,��
2023/04/25,23:50,0.154,0.139,0.223,0.220,0.214,0.124,0.078,��,9.8,��
